• In Hungary
  • List of Countries
  • For 7 days
  • Water Temperature
  • Satellite Maps
  • Weather Map
  • News
  • Weather Widgets
  • user-avatar
    Login

    Hourly Weather Mbandaka

    Today, 20 January, Saturday

    Time Temperature Precipitation Wind Pressure Humidity
    00:00 +24°C° 0 mm 0 mps 730 mmHg 53%
    01:00 +24°C° 0 mm 0 mps 730 mmHg 51%
    02:00 +24°C° 0 mm 0 mps 730 mmHg 52%
    03:00 +24°C° 0 mm 0 mps 730 mmHg 53%
    04:00 +23°C° 0 mm 0 mps 730 mmHg 54%
    05:00 +24°C° 0 mm 0 mps 730 mmHg 56%
    06:00 +24°C° 0 mm 0 mps 730 mmHg 58%
    07:00 +24°C° 0 mm 0 mps 731 mmHg 60%
    08:00 +29°C° 0 mm 1 mps 731 mmHg 51%
    09:00 +32°C° 0 mm 1 mps 731 mmHg 43%
    10:00 +35°C° 0 mm 1 mps 731 mmHg 34%
    11:00 +37°C° 0 mm 1 mps 730 mmHg 29%
    12:00 +39°C° 0 mm 1 mps 729 mmHg 24%
    13:00 +41°C° 0 mm 1 mps 729 mmHg 20%
    14:00 +41°C° 0 mm 1 mps 728 mmHg 19%
    15:00 +40°C° 0 mm 1 mps 727 mmHg 19%
    16:00 +40°C° 0 mm 1 mps 727 mmHg 19%
    17:00 +36°C° 0 mm 1 mps 727 mmHg 23%
    18:00 +31°C° 0 mm 0 mps 727 mmHg 28%
    19:00 +28°C° 0 mm 0 mps 727 mmHg 32%
    20:00 +27°C° 0 mm 0 mps 728 mmHg 34%
    21:00 +26°C° 0 mm 0 mps 728 mmHg 36%
    22:00 +26°C° 0 mm 0 mps 729 mmHg 39%
    23:00 +25°C° 0 mm 0 mps 729 mmHg 41%

    Tomorrow, 21 January, Sunday

    Time Temperature Precipitation Wind Pressure Humidity
    00:00 +24°C° 0 mm 0 mps 729 mmHg 44%
    01:00 +24°C° 0 mm 0 mps 729 mmHg 46%
    02:00 +24°C° 0 mm 0 mps 729 mmHg 49%
    03:00 +25°C° 0 mm 1 mps 729 mmHg 52%
    04:00 +25°C° 0 mm 1 mps 729 mmHg 54%
    05:00 +25°C° 0.1 mm 1 mps 730 mmHg 59%
    06:00 +26°C° 0.1 mm 1 mps 730 mmHg 63%
    07:00 +26°C° 0.1 mm 1 mps 731 mmHg 67%
    08:00 +28°C° 0 mm 1 mps 731 mmHg 61%
    09:00 +31°C° 0 mm 2 mps 732 mmHg 54%
    10:00 +35°C° 0 mm 2 mps 732 mmHg 47%
    11:00 +37°C° 0 mm 2 mps 731 mmHg 41%
    12:00 +39°C° 0 mm 1 mps 730 mmHg 34%
    13:00 +41°C° 0 mm 1 mps 729 mmHg 28%
    14:00 +40°C° 0 mm 1 mps 729 mmHg 30%
    15:00 +35°C° 0 mm 0 mps 728 mmHg 32%
    16:00 +34°C° 0 mm 0 mps 727 mmHg 34%
    17:00 +32°C° 0 mm 0 mps 727 mmHg 38%
    18:00 +30°C° 0 mm 0 mps 728 mmHg 42%
    19:00 +29°C° 0 mm 0 mps 728 mmHg 45%
    20:00 +28°C° 0 mm 0 mps 728 mmHg 47%
    21:00 +27°C° 0 mm 0 mps 729 mmHg 49%
    22:00 +29°C° 0 mm 1 mps 730 mmHg 52%
    23:00 +28°C° 0 mm 1 mps 729 mmHg 55%

    Day after tomorrow, 22 January, Monday

    Time Temperature Precipitation Wind Pressure Humidity
    00:00 +28°C° 0 mm 1 mps 729 mmHg 58%
    01:00 +27°C° 0 mm 1 mps 729 mmHg 61%
    02:00 +27°C° 0 mm 1 mps 729 mmHg 67%
    03:00 +26°C° 0 mm 2 mps 729 mmHg 72%
    04:00 +26°C° 0 mm 2 mps 729 mmHg 77%
    05:00 +26°C° 0 mm 2 mps 730 mmHg 78%
    06:00 +26°C° 0 mm 2 mps 730 mmHg 78%
    07:00 +26°C° 0 mm 2 mps 731 mmHg 79%
    08:00 +29°C° 0 mm 2 mps 731 mmHg 68%
    09:00 +31°C° 0 mm 2 mps 732 mmHg 57%
    10:00 +35°C° 0 mm 2 mps 732 mmHg 46%
    11:00 +35°C° 0 mm 1 mps 731 mmHg 42%
    12:00 +37°C° 0 mm 1 mps 730 mmHg 38%
    13:00 +39°C° 0 mm 1 mps 729 mmHg 33%
    14:00 +37°C° 0 mm 1 mps 728 mmHg 34%
    15:00 +37°C° 0 mm 1 mps 728 mmHg 35%
    16:00 +36°C° 0 mm 1 mps 727 mmHg 36%
    17:00 +34°C° 0 mm 1 mps 727 mmHg 41%
    18:00 +32°C° 0 mm 1 mps 728 mmHg 45%
    19:00 +29°C° 0 mm 0 mps 728 mmHg 50%
    20:00 +29°C° 0.4 mm 1 mps 729 mmHg 58%
    21:00 +28°C° 0.4 mm 1 mps 729 mmHg 67%
    22:00 +27°C° 0.4 mm 1 mps 730 mmHg 75%
    23:00 +26°C° 0 mm 1 mps 729 mmHg 76%

    23 January, Tuesday

    Time Temperature Precipitation Wind Pressure Humidity
    00:00 +26°C° 0 mm 1 mps 729 mmHg 76%
    01:00 +26°C° 0 mm 1 mps 729 mmHg 77%
    02:00 +26°C° 0.3 mm 1 mps 729 mmHg 80%
    03:00 +26°C° 0.3 mm 1 mps 729 mmHg 84%
    04:00 +25°C° 0.3 mm 1 mps 729 mmHg 87%
    05:00 +25°C° 0 mm 2 mps 730 mmHg 87%
    06:00 +25°C° 0 mm 2 mps 730 mmHg 86%
    07:00 +25°C° 0 mm 2 mps 731 mmHg 86%
    08:00 +27°C° 0 mm 2 mps 731 mmHg 76%
    09:00 +29°C° 0 mm 2 mps 731 mmHg 67%
    10:00 +31°C° 0 mm 3 mps 732 mmHg 57%
    11:00 +31°C° 0.7 mm 2 mps 731 mmHg 57%
    12:00 +31°C° 0.7 mm 2 mps 730 mmHg 58%
    13:00 +32°C° 0.7 mm 1 mps 729 mmHg 59%
    14:00 +32°C° 0.4 mm 1 mps 729 mmHg 56%
    15:00 +32°C° 0.4 mm 1 mps 729 mmHg 53%
    16:00 +33°C° 0.4 mm 1 mps 728 mmHg 50%
    17:00 +31°C° 0 mm 1 mps 728 mmHg 57%
    18:00 +29°C° 0 mm 1 mps 729 mmHg 63%
    19:00 +27°C° 0 mm 1 mps 729 mmHg 70%
    20:00 +27°C° 0 mm 1 mps 729 mmHg 72%
    21:00 +27°C° 0 mm 1 mps 729 mmHg 74%
    22:00 +26°C° 0 mm 1 mps 730 mmHg 76%
    23:00 +26°C° 0 mm 1 mps 729 mmHg 76%

    24 January, Wednesday

    Time Temperature Precipitation Wind Pressure Humidity
    00:00 +26°C° 0 mm 1 mps 729 mmHg 76%
    01:00 +26°C° 0 mm 1 mps 728 mmHg 76%
    02:00 +26°C° 0 mm 1 mps 728 mmHg 78%
    03:00 +26°C° 0 mm 1 mps 728 mmHg 79%
    04:00 +26°C° 0 mm 1 mps 728 mmHg 80%
    05:00 +26°C° 0 mm 1 mps 729 mmHg 80%
    06:00 +26°C° 0 mm 1 mps 730 mmHg 80%
    07:00 +26°C° 0 mm 1 mps 731 mmHg 81%
    08:00 +28°C° 0 mm 1 mps 731 mmHg 69%
    09:00 +31°C° 0 mm 1 mps 731 mmHg 58%
    10:00 +34°C° 0 mm 1 mps 731 mmHg 47%
    11:00 +35°C° 0 mm 1 mps 730 mmHg 42%
    12:00 +37°C° 0 mm 1 mps 729 mmHg 36%
    13:00 +39°C° 0 mm 1 mps 728 mmHg 31%
    14:00 +37°C° 0 mm 1 mps 728 mmHg 33%
    15:00 +36°C° 0 mm 1 mps 727 mmHg 36%
    16:00 +35°C° 0 mm 1 mps 727 mmHg 39%
    17:00 +33°C° 0 mm 1 mps 727 mmHg 43%
    18:00 +31°C° 0 mm 1 mps 728 mmHg 48%
    19:00 +28°C° 0 mm 0 mps 728 mmHg 52%
    20:00 +29°C° 0 mm 1 mps 728 mmHg 56%
    21:00 +28°C° 0 mm 1 mps 729 mmHg 59%
    22:00 +28°C° 0 mm 1 mps 729 mmHg 62%
    23:00 +27°C° 0 mm 1 mps 729 mmHg 65%

    25 January, Thursday

    Time Temperature Precipitation Wind Pressure Humidity
    00:00 +27°C° 0 mm 1 mps 729 mmHg 68%
    01:00 +26°C° 0 mm 1 mps 728 mmHg 70%
    02:00 +26°C° 0 mm 1 mps 728 mmHg 70%
    03:00 +24°C° 0 mm 0 mps 728 mmHg 70%
    04:00 +24°C° 0 mm 0 mps 728 mmHg 70%
    05:00 +26°C° 0 mm 1 mps 729 mmHg 69%
    06:00 +27°C° 0 mm 1 mps 729 mmHg 67%
    07:00 +27°C° 0 mm 1 mps 730 mmHg 66%
    08:00 +30°C° 0 mm 1 mps 730 mmHg 58%
    09:00 +32°C° 0 mm 2 mps 730 mmHg 50%
    10:00 +36°C° 0 mm 2 mps 730 mmHg 41%
    11:00 +37°C° 0 mm 2 mps 729 mmHg 38%
    12:00 +38°C° 0 mm 2 mps 729 mmHg 34%
    13:00 +40°C° 0 mm 1 mps 728 mmHg 30%
    14:00 +39°C° 0 mm 1 mps 728 mmHg 32%
    15:00 +37°C° 0 mm 1 mps 727 mmHg 35%
    16:00 +36°C° 0 mm 1 mps 727 mmHg 37%
    17:00 +34°C° 0 mm 1 mps 727 mmHg 43%
    18:00 +32°C° 0 mm 1 mps 727 mmHg 49%
    19:00 +30°C° 0 mm 1 mps 728 mmHg 55%
    20:00 +29°C° 0.2 mm 1 mps 728 mmHg 61%
    21:00 +28°C° 0.2 mm 1 mps 729 mmHg 68%
    22:00 +27°C° 0.2 mm 1 mps 729 mmHg 74%
    23:00 +26°C° 0.8 mm 1 mps 729 mmHg 80%
    Show more